Regional Weather Roundup
Issued by NWS Little Rock, AR

Home | Current Version | Previous Version | Graphics & Text | Print | Product List | Glossary On
Versions: 1 2 3 4 5 6 7 8 9 10 11 12 13 14 15 16 17 18 19 20 21 22 23 24 25 26 27 28 29 30 31 32 33 34 35 36 37 38 39 40 41 42 43 44 45 46 47 48 49 50
000
ASUS44 KLZK 181705
RWRLZK

WEATHER ROUNDUP FOR ARKANSAS
NATIONAL WEATHER SERVICE LITTLE ROCK AR
1100 AM CST THU DEC 18 2014

NOTE: "FAIR" INDICATES FEW OR NO CLOUDS BELOW 12,000 FEET WITH NO
SIGNIFICANT WEATHER AND/OR OBSTRUCTIONS TO VISIBILITY.

ARZ001-003-010-029-181800-
NORTHWEST ARKANSAS

CITY           SKY/WX    TMP DP  RH WIND       PRES   REMARKS
FAYETTEVILLE   CLOUDY    39  37  92 S5        30.19S
FORT SMITH     CLOUDY    39  36  89 E8        30.23S
HARRISON       CLOUDY    37  36  96 S7        30.19F
BENTONVILLE    CLOUDY    39  36  87 SW3       30.20S
ROGERS         CLOUDY    38  37  97 SW5       30.19F FOG
SILOAM SPGS    CLOUDY    37  32  81 CALM      30.21S
HIGHFILL       CLOUDY    38  38 100 SW5       30.19R
SPRINGDALE     CLOUDY    37  37 100 SE7       30.20S
$$

ARZ004-005-016-181800-
NORTH CENTRAL ARKANSAS

CITY           SKY/WX    TMP DP  RH WIND       PRES   REMARKS
BATESVILLE     CLOUDY    37  36  93 E6        30.26F
FLIPPIN        CLOUDY    37  30  75 E5        30.22F
MTN HOME       CLOUDY    35  34  96 S6        30.22S WCI  30
$$

ARZ040-041-181800-
WEST CENTRAL ARKANSAS

CITY           SKY/WX    TMP DP  RH WIND       PRES   REMARKS
MENA           CLOUDY    43  41  93 E6        30.19F
MOUNT IDA      CLOUDY    41  39  93 CALM      30.19S
$$

ARZ009-017-025-026-028-181800-
NORTHEAST ARKANSAS

CITY           SKY/WX    TMP DP  RH WIND       PRES   REMARKS
CORNING        PTSUNNY   37  36  93 E9        30.28F FOG
JONESBORO      CLOUDY    39  37  92 E7        30.27S
NEWPORT        LGT RAIN  39  36  89 E6        30.28S VSB 1/4
WALNUT RIDGE   CLOUDY    39  34  81 E7        30.26F
BLYTHEVILLE    CLOUDY    40  37  89 E7        30.26F
NW BLYTHEVILLE CLOUDY    39  36  87 NE8       30.26F
$$

ARZ022-023-033-042-044-181800-
CENTRAL ARKANSAS

CITY           SKY/WX    TMP DP  RH WIND       PRES   REMARKS
LITTLE ROCK    CLOUDY    40  37  89 E3        30.25F FOG
N LITTLE ROCK  CLOUDY    38  38 100 E6        30.25F
JACKSONVILLE   CLOUDY    39  39  98 NE3       30.24F
SEARCY         CLOUDY    39  38  96 E6        30.28S FOG
HOT SPRINGS    CLOUDY    40  38  93 E6        30.23S
RUSSELLVILLE   CLOUDY    38  35  89 CALM      30.24F
CLINTON        CLOUDY    37  36  93 CALM      30.26F FOG
$$

ARZ036-181800-
EAST ARKANSAS

CITY           SKY/WX    TMP DP  RH WIND       PRES   REMARKS
WEST MEMPHIS   CLOUDY    41  39  93 CALM      30.26F
$$

ARZ050-053-066-070-073-181800-
SOUTHWEST ARKANSAS

CITY           SKY/WX    TMP DP  RH WIND       PRES   REMARKS
ARKADELPHIA    CLOUDY    41  41 100 NE7       30.23F FOG
CAMDEN         CLOUDY    45  41  87 CALM      30.23S
TEXARKANA      CLOUDY    44  42  93 E3        30.20F
EL DORADO      CLOUDY    47  43  86 VRB3      30.21S
DE QUEEN       CLOUDY    43  41  93 NE6       30.20F FOG
$$

ARZ056-057-069-181800-
SOUTHEAST ARKANSAS

CITY           SKY/WX    TMP DP  RH WIND       PRES   REMARKS
PINE BLUFF     CLOUDY    42  39  89 NE6       30.24F
STUTTGART      CLOUDY    39  37  93 NE7       30.26S
MONTICELLO     CLOUDY    46  42  86 E3        30.22F

$$





USA.gov is the U.S. government's official web portal to all federal, state and local government web resources and services.